Wind_Speed
4 3 5 6 8 10 12 14 17 20 23 26 23 18 18 19 21 18 15 15 15 13 11 8 7 8 3 6 3 5 11 10 8 5 3 3 7 4 5 4 6 6 8 10 13 16 16
5 4 4 5 7 9 11 14 17 19 22 25 22 19 19 22 21 18 17 16 15 14 10 6 5 3 3 7 2 6 11 10 6 6 5 5 1 2 2 2 4 8 13 11 13 11 8
6 5 4 6 7 8 10 13 15 17 20 25 25 21 20 22 21 18 20 18 16 13 7 4 3 1 3 0 3 3 9 5 5 5 4 4 3 6 4 6 10 15 13 11 7 4 7
6 7 7 6 7 8 10 12 15 17 21 25 25 23 22 22 19 21 21 17 15 7 3 1 2 1 3 3 3 5 7 6 3 3 3 1 5 1 1 12 8 6 6 7 9 1 3
5 5 6 8 8 7 10 12 14 17 20 24 26 25 24 22 21 22 21 15 4 2 3 2 1 3 2 3 4 5 5 2 5 5 5 6 4 2 6 10 8 7 3 5 6 7 1
8 6 5 6 9 9 11 12 14 16 18 23 27 26 25 21 21 22 18 4 2 2 2 2 3 4 2 3 2 3 2 4 4 10 7 4 4 7 6 9 9 8 7 4 4 8 7
9 9 9 7 9 8 11 12 14 15 18 21 25 26 26 22 24 18 10 1 4 4 5 3 2 4 1 1 2 3 1 6 6 6 7 4 7 6 3 3 3 5 7 11 9 5 6
11 10 9 9 10 8 10 12 15 15 17 20 25 27 26 23 19 10 5 2 4 4 3 4 7 6 6 3 3 2 5 8 9 8 7 5 5 4 3 4 5 8 12 10 7 5 5
13 13 11 9 9 9 11 12 14 15 16 20 23 26 25 23 8 6 5 6 7 1 4 1 3 3 1 4 1 3 4 3 7 9 8 7 8 5 6 8 7 4 3 11 6 9 6
14 14 13 12 10 10 8 10 13 14 15 18 22 25 24 23 4 6 2 9 8 3 3 4 6 3 4 3 2 4 4 2 3 7 6 5 3 6 6 4 4 4 2 9 14 9 2
13 15 15 13 13 12 9 8 11 14 15 17 21 24 21 16 8 4 5 12 3 2 2 4 6 3 3 1 2 4 4 1 5 7 5 4 7 7 5 1 2 4 9 9 9 2 6
13 15 16 13 14 16 9 8 10 13 14 16 19 21 21 8 8 5 11 8 2 2 2 5 4 5 5 2 2 1 3 5 4 6 7 8 4 1 3 4 3 13 12 8 4 3 4
12 14 16 16 13 15 11 9 9 12 14 16 19 21 18 10 3 8 11 4 3 3 1 6 4 5 3 2 3 3 2 4 3 6 7 7 4 5 6 10 11 6 12 4 3 4 3
10 13 14 17 15 14 11 5 8 11 13 17 20 19 10 8 10 9 4 4 2 1 3 3 3 6 3 2 3 1 3 4 3 2 5 8 6 7 2 4 5 12 12 3 5 3 3
9 12 14 17 18 12 11 6 7 9 13 17 19 10 3 4 5 1 5 2 2 2 1 4 7 6 4 3 1 3 0 1 2 3 4 5 4 4 4 2 3 8 8 2 1 1 3
9 11 13 16 19 11 12 8 5 8 12 17 11 6 2 4 3 3 4 4 2 1 2 3 5 2 3 5 5 4 3 2 2 2 2 2 3 5 5 2 4 5 6 4 4 4 4
9 11 12 15 18 14 11 7 4 6 11 14 5 3 1 1 1 4 3 3 2 1 2 2 3 3 1 2 2 2 3 3 1 1 1 3 4 5 4 6 5 5 5 1 4 1 1
9 10 11 14 17 16 11 11 4 5 11 5 3 3 2 3 5 2 5 3 0 2 1 1 2 3 1 2 2 2 2 3 2 1 2 1 3 5 6 4 2 2 2 6 3 3 0
8 9 9 12 15 15 12 12 5 3 7 5 2 2 0 2 5 6 3 4 2 2 3 2 2 4 2 3 2 2 3 5 2 1 1 2 3 4 5 5 5 6 4 2 6 1 2
8 8 8 12 14 16 13 12 7 2 6 3 3 3 3 4 1 4 7 6 5 3 3 4 3 2 4 3 3 4 4 3 2 4 5 3 1 4 5 8 5 3 3 4 3 2 7
9 8 8 11 13 15 13 11 7 4 4 3 3 1 3 4 7 5 4 7 7 3 3 2 3 3 1 3 3 4 4 5 4 2 1 2 2 3 4 4 5 7 7 3 5 5 1
10 8 8 10 11 14 13 11 11 4 4 4 2 2 2 1 2 8 4 5 7 6 5 2 4 5 4 4 3 4 6 3 3 1 2 1 5 3 8 11 15 15 11 14 13 13 13
10 9 9 9 9 11 12 12 9 3 2 3 1 2 3 2 5 6 6 6 7 10 10 8 15 16 17 15 17 15 13 8 4 3 2 2 5 2 5 14 14 10 7 10 10 8 5
12 11 9 7 8 11 13 13 9 6 4 3 3 2 3 3 6 5 7 4 12 3 10 6 8 11 12 15 15 15 16 15 13 11 7 6 8 1 3 5 3 4 3 5 11 9 7
15 12 9 7 8 10 13 14 10 6 5 4 4 3 2 1 2 5 10 11 14 14 14 9 2 16 15 5 7 6 4 5 8 13 9 4 1 3 2 8 5 1 4 1 2 7 6
15 12 8 7 8 10 12 11 9 8 5 5 6 3 3 4 3 5 9 11 13 8 8 9 10 12 2 2 2 2 2 1 3 3 7 5 3 2 1 3 2 5 4 1 5 3 6
15 11 8 7 7 10 12 11 10 8 6 6 4 4 4 3 2 4 4 8 7 5 8 9 7 4 2 3 3 2 3 1 2 2 3 3 4 6 4 3 3 3 2 1 4 4 4
15 10 8 6 8 9 13 13 9 8 6 7 3 5 4 2 3 1 1 3 5 7 10 11 7 4 4 3 2 3 2 3 4 1 1 1 0 2 1 3 3 6 4 3 5 2 4
15 10 9 8 8 8 14 14 9 10 6 9 4 2 7 4 4 3 6 4 2 3 6 9 3 6 3 3 2 3 3 4 5 3 2 2 2 2 3 3 6 4 3 2 3 4 4
Wind_Direction
287 323 344 355 354 0 4 1 2 2 1 1 359 360 350 343 340 336 335 329 325 318 317 313 314 328 325 229 147 151 157 168 169 177 196 196 224 231 222 154 146 123 108 73 82 88 88
259 283 315 337 339 352 350 358 1 357 359 357 357 357 349 341 339 333 331 328 318 309 305 300 305 325 268 229 98 168 162 170 205 206 189 205 250 226 178 111 299 114 114 105 94 95 120
264 260 296 321 326 334 339 353 355 353 355 358 354 353 348 342 337 330 327 325 313 303 286 280 284 188 235 171 145 155 172 205 213 239 229 223 222 213 157 131 118 139 135 122 72 97 121
299 280 283 294 309 320 333 346 348 347 353 355 353 348 347 343 336 329 325 321 309 292 252 209 216 188 258 210 200 227 210 211 203 217 240 175 200 217 275 114 145 187 198 184 51 8 100
357 303 275 274 291 309 324 336 343 345 348 350 353 348 347 342 334 329 327 319 308 150 147 157 247 255 157 252 208 172 210 201 148 137 95 118 173 191 159 191 178 200 186 140 122 30 176
326 324 289 278 274 296 315 330 334 339 342 349 351 347 343 341 335 331 329 321 142 118 135 162 245 248 233 154 124 169 183 230 172 140 143 179 205 206 198 214 221 171 156 143 99 42 106
331 311 293 298 277 281 296 313 322 330 340 344 347 343 341 343 334 333 345 247 218 185 211 289 59 315 261 354 197 170 27 205 167 198 200 158 219 212 38 292 350 116 142 128 117 116 87
355 343 316 298 294 282 277 296 313 321 331 341 345 343 339 343 335 350 10 41 41 335 286 225 250 275 265 276 182 87 341 205 194 192 158 179 196 101 95 122 130 134 133 124 112 118 163
0 353 341 315 291 293 276 277 295 313 326 337 343 343 339 342 348 32 55 50 337 227 266 187 213 240 163 196 85 22 304 175 198 176 194 223 121 150 154 139 135 129 251 168 131 135 145
1 357 351 341 318 280 292 275 282 305 320 330 340 342 342 347 40 329 112 349 340 187 265 139 185 146 173 191 146 9 14 301 146 151 136 104 122 161 156 156 275 195 169 148 148 186 184
355 0 357 347 331 325 289 274 279 296 314 328 338 338 337 345 315 277 340 336 357 196 273 159 141 107 123 234 39 73 27 277 160 135 222 112 148 150 168 111 236 116 141 154 161 172 179
353 356 357 356 342 340 296 272 271 288 308 323 330 333 329 331 298 279 332 334 164 226 233 151 156 165 164 93 75 38 88 63 106 81 73 118 111 105 104 86 179 133 130 138 179 206 243
346 354 354 353 348 338 332 265 261 288 307 317 326 324 312 301 300 309 333 239 214 155 129 160 166 173 145 111 92 13 75 118 220 175 173 146 119 116 156 116 145 177 173 166 218 205 229
339 349 351 351 345 337 334 288 266 289 306 316 324 318 309 287 287 296 286 206 108 28 200 114 141 147 165 160 88 93 150 171 80 305 162 197 189 185 153 257 203 199 211 226 240 213 129
334 344 350 351 351 341 332 312 265 292 311 320 325 321 310 292 312 163 231 93 249 202 85 166 163 195 150 148 256 178 107 176 64 19 260 204 182 121 80 160 241 171 219 41 174 338 250
323 338 349 350 353 341 338 331 273 298 318 328 333 316 278 302 135 247 205 227 226 265 306 231 215 243 179 181 204 206 190 93 108 41 305 174 186 195 132 204 88 281 124 194 217 188 223
312 330 347 351 353 350 341 328 282 310 322 326 313 275 51 214 190 219 200 211 201 152 278 258 193 162 202 178 245 172 126 117 135 105 242 193 230 146 187 208 211 167 204 206 106 21 239
299 323 342 350 353 350 340 344 297 301 323 333 285 228 21 166 198 208 206 178 339 159 84 105 71 66 158 146 153 168 164 33 29 309 240 108 273 224 203 103 59 267 247 167 196 186 138
284 318 331 343 348 349 339 341 327 299 334 312 268 306 13 241 200 194 155 142 71 164 44 37 87 31 79 138 212 131 100 46 27 294 328 158 223 221 177 190 195 227 174 167 127 148 130
272 306 321 333 344 349 343 341 339 287 334 317 264 204 167 214 308 247 173 171 137 56 80 58 96 131 139 112 42 129 120 65 69 76 36 286 61 340 317 29 341 170 149 167 255 183 144
258 286 305 323 338 348 345 342 349 292 332 312 222 227 337 184 200 209 200 174 168 137 76 41 114 52 119 132 119 109 111 137 103 127 122 323 71 71 45 127 106 115 125 147 125 106 242
248 271 291 314 333 346 346 343 354 290 327 265 273 284 189 247 201 193 176 179 167 124 8 107 96 78 70 82 30 127 128 35 30 129 79 6 142 128 59 96 92 73 77 86 85 96 114
235 255 273 306 329 343 340 331 343 312 325 279 279 231 275 135 172 194 178 151 150 130 48 92 114 94 89 91 88 84 83 75 61 339 44 27 155 202 128 136 131 72 11 97 97 59 82
229 241 266 296 315 334 337 328 323 341 227 302 353 278 258 161 206 184 142 131 138 117 132 125 128 112 123 111 105 95 87 78 66 52 18 113 97 94 132 267 88 103 88 60 95 80 81
226 240 256 278 299 326 339 337 308 320 253 260 285 334 315 227 193 129 136 122 110 103 106 94 67 122 146 158 118 117 116 112 59 47 45 40 70 103 157 73 104 168 149 143 32 89 40
225 227 242 259 292 318 332 332 315 307 295 240 273 255 294 299 145 118 125 151 138 126 105 109 107 126 203 108 131 110 76 59 64 104 22 60 59 139 76 96 103 130 127 322 301 123 43
212 217 234 249 289 309 324 324 301 293 281 224 269 225 269 286 111 189 141 160 135 125 123 141 158 193 258 160 129 103 99 56 100 77 20 44 45 77 94 100 110 155 118 243 241 73 57
208 216 225 253 284 306 321 325 292 285 238 214 269 231 269 298 99 346 94 145 138 160 157 147 154 204 169 175 157 132 122 100 111 93 76 82 339 106 202 117 143 169 182 287 65 108 338
208 210 231 252 281 304 322 323 286 283 230 215 260 274 217 279 47 71 72 45 356 14 131 174 56 148 126 132 167 133 132 156 144 130 122 166 44 108 357 84 109 130 56 69 15 307 325
Height
856 854 854 853 853 851 849 849 847 844 841 837 834 829 827 825 821 818 816 814 812 809 806 804 803 802 801 797 789 790 792 795 796 797 795 794 794 792 794 790 794 796 807 810 811 811 814
853 854 854 852 853 850 850 848 845 844 841 837 834 829 825 823 820 817 814 811 809 807 804 802 802 801 801 798 792 791 792 793 796 795 794 793 791 791 792 793 795 800 807 813 814 816 819
851 852 850 851 852 851 851 847 845 843 842 836 832 828 824 821 818 815 812 809 806 804 802 801 801 800 799 790 793 793 792 793 794 794 792 794 793 792 791 799 801 805 809 808 817 817 822
849 849 849 850 850 850 849 845 844 844 839 835 832 828 822 819 816 813 809 806 804 802 801 800 800 800 795 791 791 792 792 791 793 794 795 795 795 793 793 797 802 801 802 808 822 817 820
849 848 848 848 849 849 848 846 844 841 838 835 830 826 821 817 815 810 807 803 801 801 801 800 802 799 792 792 790 789 792 788 790 793 794 795 795 795 798 800 804 804 802 811 821 818 819
848 847 847 847 849 848 847 844 843 840 838 834 828 824 820 816 812 807 804 801 801 801 801 801 800 801 789 789 789 789 790 791 788 790 792 793 793 794 795 797 805 803 815 817 818 826 819
848 847 846 845 846 845 845 844 844 840 836 834 829 825 819 815 811 806 804 803 804 801 800 792 791 791 788 788 788 788 790 789 787 788 793 795 797 798 801 799 795 796 803 817 830 834 832
849 846 844 843 843 842 843 842 841 839 837 832 827 823 819 813 810 806 805 803 808 810 797 792 792 792 790 789 788 788 790 788 788 792 793 799 801 807 804 801 801 803 813 827 836 835 832
848 845 843 842 840 839 840 840 840 838 835 831 827 823 819 814 808 807 810 809 809 808 800 791 788 787 787 788 789 789 789 786 787 795 795 795 805 807 806 808 811 815 813 825 827 837 832
847 845 842 840 838 837 838 838 838 836 833 831 826 821 817 812 811 812 809 809 807 807 798 796 789 786 786 784 792 791 791 789 792 797 795 804 809 809 811 816 815 821 820 823 831 828 827
847 845 842 839 837 836 835 835 835 834 831 828 824 821 818 814 815 812 810 807 806 809 818 793 788 785 785 788 792 791 793 787 792 797 801 813 813 813 816 819 818 825 822 825 828 830 832
847 844 842 840 838 834 832 832 833 832 829 826 824 821 817 816 815 811 807 806 807 808 815 795 785 788 789 791 794 791 791 792 794 800 800 809 810 813 816 820 817 822 828 832 830 830 837
847 844 841 839 837 834 831 830 830 829 827 825 821 819 817 813 812 808 807 807 808 820 796 796 792 788 790 796 798 797 800 800 799 810 810 813 816 815 815 824 824 823 826 835 842 841 841
846 844 842 838 835 832 830 828 828 827 825 823 819 817 812 810 810 807 808 803 825 799 793 789 789 790 793 796 802 803 802 803 808 804 804 811 824 817 819 816 817 821 819 825 839 827 839
845 843 841 837 833 831 828 826 826 825 823 821 817 813 809 810 807 807 804 824 803 795 791 790 791 795 797 798 798 802 807 808 813 814 809 815 818 824 823 821 819 823 828 820 828 836 832
844 843 840 837 833 830 828 825 824 824 822 819 816 812 809 809 808 809 803 817 797 795 793 792 793 792 797 797 800 801 808 817 816 817 816 817 825 822 826 824 824 820 817 830 825 855 849
843 841 839 836 833 829 828 825 824 823 821 819 817 808 810 808 809 804 811 799 797 794 794 794 791 795 794 799 799 804 809 819 819 818 817 815 818 825 824 821 815 826 825 829 832 863 836
841 840 838 836 833 830 827 825 823 822 821 820 817 805 809 809 803 802 800 796 801 795 793 793 793 795 796 804 806 809 810 816 822 821 816 819 816 818 816 826 826 826 823 836 848 854 852
839 839 838 836 833 830 826 824 822 822 821 821 811 807 809 809 802 798 799 797 798 795 799 796 799 800 803 807 812 814 818 826 825 822 819 819 818 824 825 828 827 826 830 833 847 849 847
837 837 837 835 833 829 827 824 822 821 821 821 814 805 806 805 802 795 795 795 800 802 804 803 804 803 805 811 813 819 822 828 827 826 833 826 826 828 822 827 824 830 837 834 831 840 851
836 836 836 835 832 829 826 824 821 821 821 822 813 804 807 798 798 797 794 791 796 801 803 804 806 805 805 813 815 821 822 825 827 832 827 824 831 844 838 834 832 834 838 835 836 833 837
833 834 835 834 831 828 826 822 822 821 822 821 810 807 806 799 799 796 801 794 796 810 809 806 806 813 808 815 817 822 822 825 828 826 827 830 846 838 844 837 845 852 845 838 837 838 839
831 832 833 832 830 828 826 824 822 821 823 820 817 815 813 805 796 793 790 794 798 804 817 810 811 815 820 826 824 827 830 833 833 831 829 830 838 843 850 841 835 852 866 850 849 845 838
828 830 831 830 829 827 826 824 822 822 822 823 820 817 807 794 793 789 794 797 802 805 812 819 817 819 833 832 829 829 831 833 834 835 833 835 846 851 851 845 851 866 860 853 851 850 848
825 827 828 828 827 826 824 822 821 820 821 822 821 819 809 795 793 799 798 803 808 812 816 822 824 822 832 829 828 832 834 833 839 840 838 836 837 846 847 847 872 866 860 856 852 858 852
822 824 826 826 826 825 823 822 819 819 820 821 821 820 817 804 798 799 801 801 803 812 819 831 833 835 834 828 830 836 841 844 842 842 842 838 836 843 843 844 856 858 858 860 857 856 856
819 822 823 824 824 823 822 820 819 819 819 821 820 818 817 806 807 805 799 803 803 808 816 828 833 834 834 825 828 833 843 850 845 850 853 847 847 847 852 858 865 860 861 862 855 860 860
816 819 820 821 822 821 820 819 817 817 817 819 819 817 817 809 808 810 809 807 809 806 814 822 829 829 828 827 827 835 836 848 853 866 859 854 849 860 853 856 867 860 860 857 857 855 859
813 815 817 819 819 819 818 817 816 816 816 818 819 816 817 816 812 813 812 813 812 811 812 820 819 819 822 826 829 835 839 845 846 850 859 860 864 863 860 857 858 860 857 858 858 859 857